| time (UTC) | temp F | wind direction | speed MPH | gust MPH | rain 1hr in | rain 24hr in | rain mn in | humidity % | barometer mb |
| 20260507120009 | 52 | 279 | 9.0 | 17.0 | 0.00 | 0.37 | 0.37 | 89 | 1019.3 |
| 20260507115009 | 52 | 277 | 9.0 | 17.0 | 0.00 | 0.37 | 0.37 | 89 | 1019.4 |
| 20260507114009 | 51 | 285 | 9.0 | 18.0 | 0.00 | 0.37 | 0.37 | 89 | 1019.4 |
| 20260507113009 | 51 | 273 | 9.0 | 18.0 | 0.00 | 0.37 | 0.37 | 89 | 1019.3 |
| 20260507112009 | 51 | 267 | 8.0 | 16.0 | 0.01 | 0.37 | 0.37 | 89 | 1019.4 |
| 20260507111009 | 51 | 289 | 8.0 | 14.0 | 0.01 | 0.38 | 0.37 | 89 | 1019.4 |
| 20260507110009 | 51 | 275 | 8.0 | 17.0 | 0.01 | 0.38 | 0.37 | 89 | 1019.4 |
| 20260507105009 | 51 | 276 | 9.0 | 17.0 | 0.02 | 0.38 | 0.37 | 89 | 1019.4 |
| 20260507104008 | 51 | 275 | 6.0 | 15.0 | 0.02 | 0.38 | 0.37 | 89 | 1019.4 |
| 20260507103009 | 51 | 275 | 8.0 | 15.0 | 0.02 | 0.38 | 0.37 | 89 | 1019.8 |
| 20260507102011 | 51 | 275 | 8.0 | 16.0 | 0.01 | 0.38 | 0.36 | 88 | 1020.0 |
| 20260507101009 | 51 | 275 | 9.0 | 16.0 | 0.02 | 0.39 | 0.36 | 88 | 1020.0 |
| 20260507100009 | 51 | 256 | 7.0 | 14.0 | 0.02 | 0.45 | 0.36 | 87 | 1020.2 |
| 20260507095008 | 51 | 244 | 7.0 | 12.0 | 0.01 | 0.53 | 0.35 | 86 | 1020.2 |
| 20260507094009 | 52 | 259 | 3.0 | 10.0 | 0.01 | 0.54 | 0.35 | 85 | 1020.3 |
| 20260507093009 | 52 | 263 | 7.0 | 13.0 | 0.01 | 0.54 | 0.35 | 85 | 1020.1 |
| 20260507092009 | 52 | 245 | 4.0 | 14.0 | 0.01 | 0.55 | 0.35 | 85 | 1020.0 |
| 20260507091009 | 52 | 250 | 3.0 | 12.0 | 0.00 | 0.58 | 0.34 | 85 | 1020.2 |
| 20260507090008 | 52 | 221 | 5.0 | 14.0 | 0.00 | 0.63 | 0.34 | 84 | 1020.1 |
| 20260507085009 | 52 | 250 | 5.0 | 12.0 | 0.00 | 0.65 | 0.34 | 85 | 1020.0 |
| 20260507084009 | 51 | 243 | 8.0 | 13.0 | 0.00 | 0.65 | 0.34 | 86 | 1020.0 |
| 20260507083009 | 51 | 249 | 6.0 | 12.0 | 0.01 | 0.66 | 0.34 | 87 | 1019.8 |
| 20260507082008 | 50 | 241 | 4.0 | 8.0 | 0.02 | 0.70 | 0.34 | 87 | 1020.0 |
| 20260507081009 | 50 | 237 | 5.0 | 12.0 | 0.05 | 0.77 | 0.34 | 87 | 1019.9 |
| 20260507080009 | 50 | 238 | 5.0 | 12.0 | 0.05 | 0.77 | 0.34 | 87 | 1019.9 |
| 20260507075009 | 50 | 214 | 3.0 | 8.0 | 0.05 | 0.77 | 0.34 | 87 | 1019.8 |
| 20260507074009 | 50 | 296 | 1.0 | 5.0 | 0.05 | 0.79 | 0.34 | 87 | 1019.8 |
| 20260507073009 | 50 | 316 | 2.0 | 3.0 | 0.04 | 0.80 | 0.33 | 86 | 1019.7 |
| 20260507072011 | 50 | 317 | 2.0 | 5.0 | 0.03 | 0.79 | 0.32 | 86 | 1019.6 |
| 20260507071009 | 50 | 319 | 2.0 | 9.0 | 0.00 | 0.76 | 0.29 | 85 | 1019.6 |
| 20260507070012 | 51 | 298 | 3.0 | 9.0 | 0.00 | 0.76 | 0.29 | 85 | 1019.7 |
| 20260507065009 | 51 | 268 | 4.0 | 10.0 | 0.00 | 0.76 | 0.29 | 84 | 1019.6 |
| 20260507064009 | 51 | 269 | 3.0 | 8.0 | 0.01 | 0.76 | 0.29 | 84 | 1019.7 |
| 20260507063009 | 51 | 264 | 3.0 | 9.0 | 0.01 | 0.76 | 0.29 | 83 | 1019.7 |
| 20260507062009 | 51 | 267 | 3.0 | 9.0 | 0.01 | 0.76 | 0.29 | 83 | 1019.8 |
| 20260507061009 | 51 | 241 | 6.0 | 10.0 | 0.01 | 0.76 | 0.29 | 82 | 1019.8 |
| 20260507060009 | 51 | 249 | 5.0 | 10.0 | 0.01 | 0.76 | 0.29 | 82 | 1020.0 |
| 20260507055009 | 52 | 241 | 6.0 | 14.0 | 0.01 | 0.76 | 0.29 | 80 | 1020.1 |
| 20260507054009 | 52 | 228 | 6.0 | 13.0 | 0.00 | 0.75 | 0.28 | 80 | 1020.1 |
| 20260507053009 | 51 | 242 | 5.0 | 10.0 | 0.00 | 0.75 | 0.28 | 80 | 1019.9 |
| 20260507052010 | 52 | 247 | 5.0 | 16.0 | 0.00 | 0.75 | 0.28 | 79 | 1020.0 |
| 20260507051009 | 52 | 226 | 9.0 | 18.0 | 0.00 | 0.75 | 0.28 | 76 | 1020.2 |
| 20260507050009 | 53 | 225 | 9.0 | 17.0 | 0.00 | 0.75 | 0.28 | 70 | 1019.8 |
| 20260507045009 | 53 | 231 | 11.0 | 17.0 | 0.00 | 0.75 | 0.28 | 70 | 1019.8 |
| 20260507044009 | 54 | 229 | 9.0 | 13.0 | 0.00 | 0.75 | 0.28 | 71 | 1019.9 |
| 20260507043009 | 54 | 217 | 7.0 | 18.0 | 0.00 | 0.75 | 0.28 | 71 | 1019.9 |
| 20260507042009 | 54 | 233 | 7.0 | 16.0 | 0.00 | 0.75 | 0.28 | 74 | 1019.9 |
| 20260507041009 | 54 | 241 | 7.0 | 13.0 | 0.00 | 0.75 | 0.28 | 73 | 1019.8 |
| 20260507040009 | 53 | 232 | 6.0 | 20.0 | 0.04 | 0.75 | 0.28 | 73 | 1019.8 |
| 20260507035009 | 53 | 214 | 10.0 | 23.0 | 0.04 | 0.75 | 0.28 | 71 | 1019.9 |
| 20260507034009 | 52 | 229 | 10.0 | 18.0 | 0.04 | 0.75 | 0.28 | 77 | 1019.8 |
| 20260507033009 | 52 | 220 | 5.0 | 12.0 | 0.04 | 0.75 | 0.28 | 82 | 1019.8 |
| 20260507032009 | 52 | 246 | 4.0 | 12.0 | 0.04 | 0.75 | 0.28 | 79 | 1019.9 |
| 20260507031009 | 53 | 244 | 7.0 | 13.0 | 0.04 | 0.75 | 0.28 | 73 | 1019.9 |
| 20260507030009 | 54 | 235 | 9.0 | 14.0 | 0.00 | 0.71 | 0.24 | 69 | 1019.8 |
| 20260507025009 | 53 | 227 | 9.0 | 20.0 | 0.00 | 0.71 | 0.24 | 69 | 1019.9 |
| 20260507024009 | 53 | 204 | 12.0 | 21.0 | 0.00 | 0.71 | 0.24 | 69 | 1019.9 |
| 20260507023009 | 52 | 232 | 8.0 | 18.0 | 0.00 | 0.71 | 0.24 | 70 | 1019.9 |
| 20260507022009 | 53 | 210 | 10.0 | 22.0 | 0.00 | 0.71 | 0.24 | 68 | 1020.0 |
| 20260507021009 | 53 | 212 | 9.0 | 18.0 | 0.04 | 0.71 | 0.24 | 74 | 1020.0 |
| 20260507020009 | 52 | 210 | 7.0 | 15.0 | 0.04 | 0.71 | 0.24 | 78 | 1020.0 |
| 20260507015009 | 51 | 217 | 6.0 | 12.0 | 0.04 | 0.71 | 0.24 | 82 | 1019.9 |
| 20260507014009 | 49 | 229 | 6.0 | 12.0 | 0.04 | 0.71 | 0.24 | 82 | 1020.0 |
| 20260507013009 | 48 | 221 | 4.0 | 15.0 | 0.04 | 0.71 | 0.24 | 81 | 1020.2 |
| 20260507012010 | 50 | 229 | 8.0 | 18.0 | 0.04 | 0.71 | 0.24 | 77 | 1020.3 |
| 20260507011009 | 52 | 173 | 3.0 | 9.0 | 0.00 | 0.67 | 0.20 | 78 | 1019.7 |
| 20260507010009 | 51 | 200 | 7.0 | 12.0 | 0.00 | 0.67 | 0.20 | 78 | 1019.8 |
| 20260507005009 | 51 | 156 | 7.0 | 12.0 | 0.00 | 0.67 | 0.20 | 77 | 1020.0 |
| 20260507004009 | 50 | 143 | 8.0 | 17.0 | 0.00 | 0.67 | 0.20 | 74 | 1020.0 |
| 20260507003010 | 52 | 152 | 10.0 | 21.0 | 0.00 | 0.67 | 0.20 | 72 | 1019.8 |
| 20260507002009 | 53 | 201 | 8.0 | 16.0 | 0.00 | 0.67 | 0.20 | 76 | 1019.3 |
| 20260507001009 | 51 | 210 | 8.0 | 20.0 | 0.01 | 0.67 | 0.20 | 76 | 1019.2 |
| 20260507000009 | 51 | 243 | 4.0 | 13.0 | 0.01 | 0.67 | 0.20 | 78 | 1019.2 |
| 20260506235009 | 51 | 270 | 4.0 | 9.0 | 0.01 | 0.67 | 0.20 | 79 | 1019.1 |
| 20260506234009 | 51 | 237 | 3.0 | 10.0 | 0.01 | 0.67 | 0.20 | 80 | 1019.1 |
| 20260506233009 | 49 | 251 | 3.0 | 12.0 | 0.01 | 0.67 | 0.20 | 79 | 1019.1 |
| 20260506232009 | 49 | 237 | 6.0 | 23.0 | 0.01 | 0.67 | 0.20 | 75 | 1019.1 |
| 20260506231009 | 50 | 198 | 6.0 | 17.0 | 0.00 | 0.66 | 0.19 | 75 | 1019.1 |
| 20260506230010 | 49 | 165 | 3.0 | 9.0 | 0.00 | 0.66 | 0.19 | 74 | 1018.9 |
| 20260506225009 | 49 | 165 | 6.0 | 16.0 | 0.00 | 0.66 | 0.19 | 73 | 1018.9 |
| 20260506224009 | 49 | 176 | 7.0 | 16.0 | 0.00 | 0.66 | 0.19 | 72 | 1018.8 |
| 20260506223009 | 48 | 202 | 9.0 | 18.0 | 0.00 | 0.66 | 0.19 | 75 | 1018.5 |
| 20260506222009 | 48 | 207 | 7.0 | 12.0 | 0.00 | 0.66 | 0.19 | 79 | 1018.3 |
| 20260506221009 | 46 | 206 | 7.0 | 14.0 | 0.00 | 0.66 | 0.19 | 80 | 1018.4 |
| 20260506220009 | 46 | 209 | 7.0 | 14.0 | 0.00 | 0.66 | 0.19 | 80 | 1018.2 |
| 20260506215009 | 45 | 193 | 4.0 | 8.0 | 0.00 | 0.66 | 0.19 | 80 | 1018.0 |
| 20260506214009 | 45 | 202 | 6.0 | 14.0 | 0.00 | 0.66 | 0.19 | 80 | 1017.8 |
| 20260506213009 | 46 | 181 | 10.0 | 22.0 | 0.00 | 0.66 | 0.19 | 80 | 1017.9 |
| 20260506212009 | 46 | 179 | 14.0 | 25.0 | 0.00 | 0.66 | 0.19 | 81 | 1017.9 |
| 20260506211009 | 47 | 188 | 14.0 | 30.0 | 0.00 | 0.66 | 0.19 | 79 | 1017.8 |
| 20260506210009 | 47 | 192 | 14.0 | 30.0 | 0.00 | 0.66 | 0.19 | 81 | 1017.4 |
| 20260506205009 | 47 | 186 | 9.0 | 18.0 | 0.01 | 0.66 | 0.19 | 81 | 1016.8 |
| 20260506204009 | 47 | 183 | 11.0 | 18.0 | 0.02 | 0.66 | 0.19 | 82 | 1017.0 |
| 20260506203009 | 47 | 174 | 7.0 | 21.0 | 0.04 | 0.66 | 0.19 | 82 | 1016.9 |
| 20260506202011 | 47 | 186 | 16.0 | 21.0 | 0.04 | 0.66 | 0.19 | 83 | 1016.6 |
| 20260506201009 | 47 | 185 | 11.0 | 20.0 | 0.04 | 0.66 | 0.19 | 86 | 1016.5 |
| 20260506200009 | 46 | 237 | 6.0 | 20.0 | 0.04 | 0.66 | 0.19 | 86 | 1016.1 |
| 20260506195009 | 46 | 223 | 14.0 | 29.0 | 0.09 | 0.65 | 0.18 | 86 | 1016.4 |
| 20260506194009 | 46 | 218 | 9.0 | 18.0 | 0.11 | 0.64 | 0.17 | 88 | 1016.1 |
| 20260506193009 | 45 | 248 | 8.0 | 16.0 | 0.11 | 0.62 | 0.15 | 89 | 1015.7 |
| 20260506192010 | 44 | 245 | 3.0 | 9.0 | 0.11 | 0.62 | 0.15 | 88 | 1016.1 |
| 20260506191011 | 44 | 312 | 3.0 | 10.0 | 0.11 | 0.62 | 0.15 | 87 | 1015.7 |